Location: UFOWorks Observatory
(42.1050°N, 72.2350°W)
Time: 13:10:47
(UTC-05:00)

ISS - Visible Passes

Search period start: 20 January 2017 00:00
Search period end: 30 January 2017 00:00
Orbit: 399 x 410 km, 51.6° (Epoch: 21 January)

Date Brightness Start Highest point End Pass type
(mag) Time Alt. Az. Time Alt. Az. Time Alt. Az.
20 Jan -1.3 05:09:18 21° SSE 05:09:18 21° SSE 05:10:38 10° SSE visible
27 Jan -1.7 18:51:29 10° SSW 18:53:20 27° S 18:53:20 27° S visible
28 Jan -1.8 17:59:49 10° S 18:02:25 22° SE 18:03:34 18° ESE visible
28 Jan -0.2 19:35:31 10° WSW 19:36:15 15° W 19:36:15 15° W visible
29 Jan -3.4 18:43:04 10° WSW 18:46:19 82° NNW 18:46:22 81° NNW visible
